Theta_e
341 353 353 354 354 353 353 351 349 351 353 354 354 355 356 356 355 355 354 353 353 353 354 352 351 351 350 348 349 351 351 350 350 351 350 350 349 348 347 347 345 341 346
337 353 354 355 355 354 353 352 350 352 354 354 354 355 355 355 355 354 353 351 350 350 352 351 350 349 348 347 350 350 350 349 348 349 350 348 347 347 346 346 344 342 343
336 353 353 354 354 352 353 352 352 354 354 354 354 354 354 354 354 352 350 350 347 345 348 350 350 349 347 348 350 349 349 348 348 348 348 342 341 345 344 344 343 341 340
333 350 352 354 354 353 353 352 352 353 354 352 352 353 352 352 351 351 348 348 347 347 346 346 350 347 348 349 348 348 348 348 347 346 341 340 340 343 342 341 339 338 336
328 332 346 349 350 353 353 352 350 352 352 351 350 351 350 350 350 350 348 349 349 348 348 349 349 347 349 347 347 347 347 347 347 342 338 339 339 341 341 339 338 336 336
325 326 331 337 347 350 352 352 351 352 349 349 349 349 349 349 350 349 347 348 348 350 350 350 349 349 346 345 345 345 345 346 345 339 338 341 337 342 340 337 336 335 335
321 322 324 332 337 345 350 351 351 350 349 349 348 348 348 348 348 347 345 347 348 349 351 349 349 346 344 344 343 343 342 342 339 338 337 336 335 339 338 336 334 333 333
320 322 321 327 333 336 340 347 349 349 349 349 347 347 347 347 346 345 345 345 345 346 346 348 346 344 343 342 341 340 338 338 341 337 335 334 339 338 336 334 332 331 330
317 318 321 321 326 331 336 346 347 345 349 348 347 345 345 345 345 345 345 343 343 343 345 346 344 343 342 341 339 336 335 339 336 335 335 334 338 337 334 332 331 330 330
315 315 316 319 322 324 330 343 346 348 348 347 346 346 344 344 344 343 344 343 342 342 343 344 343 341 340 338 336 334 333 337 332 332 333 334 337 335 333 331 331 330 330
313 313 314 315 319 323 327 332 339 346 347 347 345 344 341 344 342 342 342 342 342 341 342 341 341 339 337 336 336 334 336 332 330 332 331 336 335 334 332 331 330 329 329
309 310 313 315 316 321 325 327 334 344 345 347 346 346 345 346 343 342 342 341 341 340 341 340 338 336 335 332 331 333 329 332 331 329 328 334 334 333 331 329 329 329 329
309 310 310 314 317 320 322 326 329 333 343 344 345 347 345 344 342 340 339 339 339 340 340 338 336 334 334 333 330 329 329 333 329 326 330 334 334 332 331 329 329 328 328
306 308 309 311 314 316 320 327 329 330 336 342 345 345 343 342 339 338 337 338 338 339 338 338 336 335 335 333 332 331 333 331 328 326 328 331 333 331 330 330 329 328 328
304 306 307 309 313 314 315 321 324 326 333 340 342 344 344 342 338 336 335 336 337 338 337 337 336 335 334 334 333 332 334 330 327 325 325 330 331 332 331 330 330 328 327
304 304 307 309 312 313 313 317 320 326 332 335 341 342 342 341 337 335 335 335 336 336 337 337 335 334 334 335 334 334 332 332 328 325 323 324 327 330 331 330 329 329 328
303 304 305 307 310 310 311 315 319 322 324 328 329 340 342 340 338 336 334 334 334 336 336 337 336 335 335 333 334 332 333 332 329 325 323 321 324 327 329 330 330 329 328
301 303 305 307 308 308 310 312 316 318 320 322 320 324 339 341 340 337 334 334 334 333 334 334 335 333 333 332 331 331 331 331 328 325 323 321 321 322 326 327 328 329 328
301 302 303 306 306 307 308 309 312 313 316 317 321 322 326 338 339 337 336 335 335 333 332 334 334 333 330 330 330 330 330 330 329 325 322 321 321 321 322 326 326 326 327
300 302 302 304 306 306 306 306 307 309 310 317 318 315 319 324 338 336 335 336 335 334 333 333 333 332 330 329 329 329 330 328 328 326 323 323 322 321 321 320 320 319 324
299 300 301 301 304 304 304 301 302 302 306 310 312 313 316 317 330 337 335 335 335 333 333 333 331 329 328 329 325 322 322 323 326 326 324 321 321 322 321 320 319 318 320
297 299 299 300 302 303 303 303 302 303 305 308 309 311 312 313 318 326 334 333 333 332 331 331 329 327 326 327 322 318 315 318 322 324 324 322 320 320 321 320 319 319 319
295 297 298 300 301 303 304 302 301 302 302 303 304 306 308 311 314 317 327 333 333 332 330 330 329 327 324 326 325 319 312 312 316 322 324 324 321 318 320 320 319 320 319
293 296 298 299 300 301 302 300 299 297 297 300 303 305 306 308 310 314 319 332 332 332 330 330 331 328 326 323 324 325 323 319 315 313 321 323 323 322 320 319 319 319 319
293 294 297 298 299 300 300 300 298 297 298 300 301 302 304 306 308 310 313 318 331 331 331 329 329 328 326 324 324 322 321 320 321 317 313 318 322 323 324 322 318 319 319
292 293 294 296 297 299 299 298 298 296 296 297 298 299 301 303 306 306 309 313 318 331 330 329 329 329 327 326 325 324 322 319 318 319 318 317 317 321 323 323 322 320 320
Wind_Speed
9 9 11 13 13 13 12 13 15 13 12 13 14 13 15 15 16 18 19 19 18 17 16 14 14 13 15 17 18 17 18 19 21 20 19 19 20 19 19 20 20 17 20
28 10 10 14 14 14 12 11 11 11 13 14 14 14 14 15 14 17 17 20 19 14 13 14 14 15 15 16 15 15 18 19 19 19 20 19 19 20 22 22 19 16 20
23 13 11 12 13 12 12 12 10 11 12 13 13 14 13 13 13 15 18 22 21 14 9 12 15 15 15 14 12 15 16 18 19 19 19 12 13 22 22 21 19 21 20
23 13 14 10 11 11 11 11 11 11 11 12 11 12 12 13 12 16 18 17 18 17 18 14 14 15 15 11 10 12 15 16 18 16 11 11 14 19 20 18 18 18 18
23 22 19 10 9 11 10 10 9 9 8 10 10 11 11 11 11 13 16 14 10 17 18 18 18 16 12 11 9 11 11 12 15 15 14 11 9 15 18 17 16 18 17
18 19 21 31 18 9 8 8 7 8 6 8 9 9 11 10 9 10 14 14 14 16 18 17 16 13 13 10 9 10 10 5 2 15 14 14 11 17 19 21 18 19 16
15 17 21 29 26 24 9 6 3 4 6 7 8 8 10 10 11 11 16 12 11 14 15 16 14 13 11 10 9 7 4 2 3 13 13 12 12 16 17 19 19 17 18
13 14 16 25 26 25 23 6 5 3 0 4 6 7 8 9 10 12 16 13 6 14 15 16 13 13 10 9 7 1 4 5 9 13 13 10 15 14 16 18 16 16 17
14 15 10 15 20 24 22 14 6 2 2 1 5 8 7 8 11 16 17 17 8 4 16 16 12 12 10 8 5 5 3 2 12 9 13 7 16 16 15 16 17 17 17
13 12 12 14 15 16 17 16 13 5 2 1 2 5 7 10 17 17 16 15 15 10 10 15 12 11 11 8 5 4 7 5 13 13 10 8 15 16 15 16 18 17 17
11 13 14 17 16 16 15 15 17 9 6 3 4 6 8 7 10 14 13 14 11 13 12 15 12 11 10 7 4 7 7 4 7 9 8 17 15 15 16 16 16 17 18
15 16 17 13 13 15 13 15 14 11 6 4 6 8 6 8 8 9 12 15 13 11 13 15 13 12 10 4 3 6 3 6 11 10 8 16 16 16 16 15 17 16 17
14 10 15 12 12 15 10 9 7 8 7 5 5 5 5 6 7 6 6 6 6 10 6 10 9 7 8 6 5 4 5 2 7 8 11 16 16 16 16 16 16 17 17
16 16 14 15 14 11 9 6 8 8 8 6 5 4 6 5 8 7 6 6 5 4 8 8 7 9 9 9 7 6 5 8 8 7 8 15 16 17 15 15 16 16 16
17 18 19 17 15 13 14 9 8 9 8 8 6 3 5 7 7 7 6 5 6 5 7 7 9 9 9 4 7 5 3 12 12 7 5 12 15 16 17 15 16 16 16
15 17 16 16 13 13 12 12 9 6 5 8 8 5 5 5 6 7 7 6 6 6 6 8 9 9 5 5 5 5 5 5 11 12 7 5 11 13 15 15 15 16 15
15 15 14 13 13 15 15 13 10 9 9 7 10 11 2 7 8 8 6 6 5 3 7 7 5 7 5 5 5 5 5 4 6 13 10 5 7 12 11 14 15 16 16
15 15 15 13 15 14 13 12 9 10 8 7 8 10 8 6 10 8 7 6 6 5 3 6 5 6 5 5 4 4 4 3 7 11 10 8 6 7 10 12 13 14 15
16 15 15 14 14 14 12 12 12 14 10 8 7 9 14 6 7 7 6 6 8 6 6 4 5 4 7 4 5 5 4 4 5 7 11 11 10 8 5 12 12 13 14
16 16 16 13 14 13 8 10 10 10 11 9 9 10 16 13 7 6 5 6 7 7 9 7 5 6 3 5 7 5 4 4 4 3 10 9 9 11 10 9 7 6 13
15 15 16 17 16 12 10 11 11 12 11 11 9 13 13 14 12 7 6 7 6 7 8 8 4 6 3 2 4 4 4 4 2 2 5 5 8 10 9 11 7 6 7
15 15 15 16 16 13 11 9 10 10 10 10 10 11 11 14 13 11 6 7 8 6 8 9 6 9 2 4 3 4 3 2 2 1 1 4 7 5 11 12 11 11 10
17 16 15 15 15 13 15 11 12 10 10 9 11 10 12 14 13 13 10 8 8 8 7 10 10 10 7 6 8 5 4 4 3 2 3 3 6 4 6 11 12 11 13
16 16 16 15 15 13 14 11 14 12 12 10 9 10 11 13 13 14 14 9 9 7 8 9 7 9 9 9 6 3 2 5 4 3 3 4 5 7 7 6 11 10 12
15 15 15 15 15 14 13 13 11 11 11 9 9 14 13 10 12 13 15 15 10 7 9 10 10 9 8 6 7 5 2 2 1 4 4 6 3 6 5 5 6 7 7
14 14 14 16 16 14 13 14 14 15 14 11 13 11 11 10 9 11 14 12 13 9 10 9 11 13 7 8 8 7 8 7 7 5 3 7 9 7 9 5 5 8 8
Wind_Direction
313 91 94 102 98 97 95 110 116 115 122 121 115 115 108 104 104 105 108 106 110 116 115 113 113 105 98 96 97 96 92 88 87 93 99 100 103 103 105 97 90 87 85
271 106 78 89 91 96 95 96 107 118 121 119 120 116 111 109 112 112 114 106 95 90 112 115 115 111 109 106 98 98 96 97 101 104 102 98 96 92 84 81 88 89 86
337 112 85 92 96 97 107 106 106 113 121 122 121 119 117 113 115 113 115 110 115 142 145 126 127 124 118 106 103 109 114 119 121 122 105 95 93 91 89 91 90 89 89
5 84 80 77 89 96 97 108 113 120 126 129 127 124 126 124 125 127 125 124 142 160 149 143 147 129 122 111 124 131 140 141 142 118 103 106 100 99 96 97 97 98 98
16 6 28 47 80 83 97 99 112 118 127 133 131 129 131 126 130 138 135 137 161 157 154 163 137 138 121 121 143 165 160 162 165 117 114 101 98 103 104 106 109 100 99
16 14 17 18 8 64 75 96 115 124 143 142 141 136 131 133 136 145 139 141 168 155 154 144 138 126 123 137 173 177 181 168 157 86 93 96 98 105 99 97 100 102 105
16 14 20 15 7 5 42 69 102 138 163 158 156 150 145 141 136 143 128 137 165 151 142 133 129 125 134 157 177 189 83 186 202 101 101 100 105 110 107 109 108 110 110
13 24 19 17 5 359 353 12 54 31 182 188 173 168 155 146 143 146 138 137 192 152 137 124 132 136 144 161 184 163 222 4 108 98 101 104 110 114 119 117 115 118 118
23 36 15 24 9 357 341 338 349 34 55 278 203 183 176 158 135 122 127 136 147 271 140 128 140 141 144 162 172 224 300 293 107 106 102 109 121 121 122 121 123 121 122
26 23 15 24 10 1 340 359 340 294 272 139 216 178 168 139 136 133 132 150 161 167 172 135 142 141 141 153 183 245 278 304 131 122 112 120 127 124 129 128 125 126 121
25 22 15 26 3 4 346 346 338 303 260 206 174 188 152 152 147 143 146 152 165 165 190 142 143 139 137 141 194 248 304 282 117 112 114 129 126 133 134 133 135 135 132
28 21 22 21 7 5 345 344 328 343 321 251 196 159 171 151 153 149 147 154 166 176 177 145 142 140 152 155 215 272 276 275 104 110 121 124 133 137 138 141 140 134 132
15 41 17 3 11 7 339 331 338 328 331 313 276 143 165 148 153 142 144 154 168 179 164 148 149 169 192 170 197 223 240 286 105 114 129 126 135 142 145 146 144 140 139
8 22 16 6 27 360 337 336 326 329 329 318 311 190 157 157 155 154 162 161 165 200 167 169 176 185 204 180 179 229 255 96 111 116 130 128 139 144 153 152 151 145 141
1 14 10 5 10 7 340 338 330 322 321 331 315 263 163 160 159 157 166 170 185 172 187 189 181 198 199 174 172 214 139 102 123 123 122 133 142 152 160 160 155 152 153
2 14 1 3 9 0 337 340 322 310 302 318 325 298 188 157 158 166 172 173 182 177 203 200 192 202 177 132 121 110 90 90 130 129 131 136 150 160 160 160 157 158 155
11 8 359 0 9 6 338 333 333 340 348 330 345 309 222 168 174 169 173 184 183 156 204 220 290 206 143 127 130 106 101 103 117 128 137 143 154 156 162 159 163 167 165
13 8 357 3 3 357 342 343 337 341 336 350 330 329 302 178 178 175 174 187 189 191 183 228 235 190 143 136 134 123 125 134 126 140 142 148 156 170 173 170 169 170 166
12 6 360 7 0 352 2 347 348 344 345 335 343 339 348 294 162 170 185 185 179 191 207 198 224 213 156 142 145 145 150 161 160 154 151 160 169 158 168 173 173 170 173
13 8 359 7 357 352 10 353 352 347 342 353 355 356 344 335 177 177 183 175 177 179 196 201 194 151 124 160 156 167 151 159 176 189 160 158 173 166 171 163 181 188 176
10 11 1 2 358 359 4 4 353 347 344 338 358 350 347 340 321 181 178 173 181 185 188 183 163 150 130 149 107 68 56 14 12 247 151 161 171 171 164 168 169 179 188
9 7 4 3 354 5 0 13 352 341 344 329 346 344 354 337 336 343 182 185 184 182 176 172 197 146 145 173 136 92 129 354 317 320 196 180 162 167 155 170 180 194 179
1 4 3 2 355 8 4 1 352 349 349 345 344 343 349 346 338 329 311 187 191 183 183 197 180 180 174 184 175 140 148 178 126 229 250 210 172 182 167 176 187 202 180
2 359 359 1 354 9 3 7 1 352 347 344 338 337 340 345 340 334 338 208 190 194 194 194 181 190 179 186 177 154 129 140 169 159 239 227 185 192 201 189 186 205 176
3 359 353 357 354 1 3 3 359 357 345 340 340 339 339 341 342 348 348 341 193 197 201 204 193 181 196 182 188 178 122 152 161 138 177 198 213 212 218 188 186 189 194
0 356 353 355 348 357 1 358 358 359 351 345 346 343 339 339 343 348 347 341 339 199 208 200 204 200 173 186 196 197 202 182 186 180 169 187 202 213 212 209 199 191 199